Time,TemperatureF,DewpointF,PressureIn,WindDirection,WindDirectionDegrees,WindSpeedMPH,WindSpeedGustMPH,Humidity,HourlyPrecipIn,Conditions,Clouds,dailyrainin,SoftwareType,DateUTC
2013-03-13 00:05:00,47.8,46.8,30.13,North,354,1.0,5.0,96,0.00,,,0.00,meteohub,2013-03-13 07:05:00,
2013-03-13 00:10:00,47.7,46.6,30.13,North,6,1.0,5.0,96,0.00,,,0.00,meteohub,2013-03-13 07:10:00,
2013-03-13 00:15:00,47.8,46.8,30.13,WNW,298,0.0,5.0,96,0.00,,,0.00,meteohub,2013-03-13 07:15:00,
2013-03-13 00:20:00,47.7,46.6,30.13,NNE,15,2.0,4.0,96,0.00,,,0.00,meteohub,2013-03-13 07:20:00,
2013-03-13 00:26:00,47.7,46.6,30.13,NNE,18,0.0,4.0,96,0.00,,,0.00,meteohub,2013-03-13 07:26:00,
2013-03-13 00:31:00,47.7,46.6,30.13,NNE,13,2.0,4.0,96,0.00,,,0.00,meteohub,2013-03-13 07:31:00,
2013-03-13 00:37:00,47.7,46.6,30.13,NNW,336,0.0,4.0,96,0.00,,,0.00,meteohub,2013-03-13 07:37:00,
2013-03-13 00:42:00,47.5,46.4,30.13,NNE,19,1.0,4.0,96,0.00,,,0.00,meteohub,2013-03-13 07:42:00,
2013-03-13 00:47:00,47.5,46.4,30.13,North,0,1.0,3.0,96,0.00,,,0.00,meteohub,2013-03-13 07:47:00,
2013-03-13 00:52:00,47.5,46.4,30.13,NW,316,1.0,3.0,96,0.00,,,0.00,meteohub,2013-03-13 07:52:00,
2013-03-13 00:57:00,47.5,46.4,30.13,North,9,0.0,2.0,96,0.00,,,0.00,meteohub,2013-03-13 07:57:00,
2013-03-13 01:02:00,47.5,46.4,30.13,NNE,17,0.0,2.0,96,0.00,,,0.00,meteohub,2013-03-13 08:02:00,
2013-03-13 01:08:00,47.5,46.4,30.13,NNE,12,0.0,2.0,96,0.00,,,0.00,meteohub,2013-03-13 08:08:00,
2013-03-13 01:13:00,47.5,46.4,30.13,North,11,0.0,2.0,96,0.00,,,0.00,meteohub,2013-03-13 08:13:00,
2013-03-13 01:18:00,47.3,46.2,30.13,NNW,328,0.0,2.0,96,0.00,,,0.00,meteohub,2013-03-13 08:18:00,
2013-03-13 01:24:00,47.3,46.2,30.13,North,356,0.0,2.0,96,0.00,,,0.00,meteohub,2013-03-13 08:24:00,
2013-03-13 01:29:00,47.3,46.2,30.13,NNW,333,0.0,2.0,96,0.00,,,0.00,meteohub,2013-03-13 08:29:00,
2013-03-13 01:34:00,47.1,46.0,30.13,North,5,1.0,2.0,96,0.00,,,0.00,meteohub,2013-03-13 08:34:00,
2013-03-13 01:39:00,47.1,46.0,30.13,NNE,18,2.0,2.0,96,0.00,,,0.00,meteohub,2013-03-13 08:39:00,
2013-03-13 01:44:00,46.9,45.9,30.13,North,6,1.0,3.0,96,0.00,,,0.00,meteohub,2013-03-13 08:44:00,
2013-03-13 01:49:00,46.9,45.9,30.14,North,0,0.0,3.0,96,0.00,,,0.00,meteohub,2013-03-13 08:49:00,
2013-03-13 01:54:00,46.9,45.9,30.14,NNE,25,0.0,3.0,96,0.00,,,0.00,meteohub,2013-03-13 08:54:00,
2013-03-13 01:59:00,46.9,45.9,30.14,NNE,13,4.0,4.0,96,0.00,,,0.00,meteohub,2013-03-13 08:59:00,
2013-03-13 02:05:00,46.9,45.9,30.14,NNE,15,3.0,4.0,96,0.00,,,0.00,meteohub,2013-03-13 09:05:00,
2013-03-13 02:10:00,46.9,45.9,30.14,NNE,20,0.0,4.0,96,0.00,,,0.00,meteohub,2013-03-13 09:10:00,
2013-03-13 02:15:00,46.9,45.9,30.14,NW,316,2.0,4.0,96,0.00,,,0.00,meteohub,2013-03-13 09:15:00,
2013-03-13 02:20:00,46.9,45.9,30.14,North,5,3.0,5.0,96,0.00,,,0.00,meteohub,2013-03-13 09:20:00,
2013-03-13 02:25:00,46.8,45.7,30.14,NNW,348,2.0,4.0,96,0.00,,,0.00,meteohub,2013-03-13 09:25:00,
2013-03-13 02:30:00,46.8,45.7,30.14,NNE,12,2.0,5.0,96,0.00,,,0.00,meteohub,2013-03-13 09:30:00,
2013-03-13 02:36:00,46.8,45.7,30.14,NNW,328,2.0,5.0,96,0.00,,,0.00,meteohub,2013-03-13 09:36:00,
2013-03-13 02:41:00,46.8,45.7,30.14,North,11,4.0,5.0,96,0.00,,,0.00,meteohub,2013-03-13 09:41:00,
2013-03-13 02:46:00,46.8,46.0,30.14,NNW,348,2.0,7.0,97,0.00,,,0.00,meteohub,2013-03-13 09:46:00,
2013-03-13 02:51:00,46.8,46.0,30.14,NW,318,0.0,7.0,97,0.00,,,0.00,meteohub,2013-03-13 09:51:00,
2013-03-13 02:56:00,46.9,46.2,30.14,NNE,19,1.0,7.0,97,0.00,,,0.00,meteohub,2013-03-13 09:56:00,
2013-03-13 03:01:00,47.1,46.4,30.14,North,1,2.0,4.0,97,0.00,,,0.00,meteohub,2013-03-13 10:01:00,
2013-03-13 03:07:00,47.1,46.4,30.14,NNE,20,1.0,4.0,97,0.00,,,0.00,meteohub,2013-03-13 10:07:00,
2013-03-13 03:12:00,47.3,46.6,30.14,NNW,340,0.0,5.0,97,0.00,,,0.00,meteohub,2013-03-13 10:12:00,
2013-03-13 03:17:00,47.3,46.6,30.13,North,354,2.0,5.0,97,0.00,,,0.00,meteohub,2013-03-13 10:17:00,
2013-03-13 03:22:00,47.1,46.4,30.13,NNW,333,1.0,5.0,97,0.00,,,0.00,meteohub,2013-03-13 10:22:00,
2013-03-13 03:27:00,47.1,46.4,30.13,North,352,0.0,3.0,97,0.00,,,0.00,meteohub,2013-03-13 10:27:00,
2013-03-13 03:32:00,47.1,46.4,30.13,North,1,3.0,3.0,97,0.00,,,0.00,meteohub,2013-03-13 10:32:00,
2013-03-13 03:37:00,47.1,46.4,30.13,NNW,340,1.0,6.0,97,0.00,,,0.00,meteohub,2013-03-13 10:37:00,
2013-03-13 03:42:00,47.1,46.4,30.13,NNW,347,2.0,6.0,97,0.00,,,0.00,meteohub,2013-03-13 10:42:00,
2013-03-13 03:47:00,46.9,46.2,30.13,North,353,1.0,6.0,97,0.00,,,0.00,meteohub,2013-03-13 10:47:00,
2013-03-13 03:52:00,46.9,46.2,30.13,NE,36,0.0,5.0,97,0.00,,,0.00,meteohub,2013-03-13 10:52:00,
2013-03-13 03:57:00,47.1,46.4,30.13,North,358,3.0,5.0,97,0.00,,,0.00,meteohub,2013-03-13 10:57:00,
2013-03-13 04:02:00,47.1,46.4,30.13,NNW,335,0.0,3.0,97,0.00,,,0.00,meteohub,2013-03-13 11:02:00,
2013-03-13 04:07:00,47.1,46.4,30.13,NNE,16,2.0,3.0,97,0.00,,,0.00,meteohub,2013-03-13 11:07:00,
2013-03-13 04:12:00,46.9,46.2,30.13,North,358,2.0,4.0,97,0.00,,,0.00,meteohub,2013-03-13 11:12:00,
2013-03-13 04:17:00,46.9,46.2,30.13,North,356,0.0,4.0,97,0.00,,,0.00,meteohub,2013-03-13 11:17:00,
2013-03-13 04:22:00,46.9,46.2,30.13,NNE,18,1.0,4.0,97,0.00,,,0.00,meteohub,2013-03-13 11:22:00,
2013-03-13 04:27:00,47.1,46.4,30.14,North,352,1.0,4.0,97,0.00,,,0.00,meteohub,2013-03-13 11:27:00,
2013-03-13 04:32:00,47.1,46.4,30.13,NNE,21,2.0,3.0,97,0.00,,,0.00,meteohub,2013-03-13 11:32:00,
2013-03-13 04:38:00,46.9,46.2,30.13,North,359,1.0,4.0,97,0.00,,,0.00,meteohub,2013-03-13 11:38:00,
2013-03-13 04:43:00,47.1,46.4,30.14,North,1,0.0,4.0,97,0.00,,,0.00,meteohub,2013-03-13 11:43:00,
2013-03-13 04:49:00,47.1,46.4,30.14,North,11,0.0,4.0,97,0.00,,,0.00,meteohub,2013-03-13 11:49:00,
2013-03-13 04:54:00,46.9,46.2,30.13,North,9,0.0,3.0,97,0.00,,,0.00,meteohub,2013-03-13 11:54:00,
2013-03-13 04:59:00,46.8,46.0,30.14,North,11,0.0,2.0,97,0.00,,,0.00,meteohub,2013-03-13 11:59:00,
2013-03-13 05:04:00,46.8,46.0,30.14,North,11,0.0,1.0,97,0.00,,,0.00,meteohub,2013-03-13 12:04:00,
2013-03-13 05:09:00,46.8,46.0,30.14,North,11,0.0,1.0,97,0.00,,,0.00,meteohub,2013-03-13 12:09:00,
2013-03-13 05:15:00,46.6,45.9,30.13,North,11,0.0,1.0,97,0.00,,,0.00,meteohub,2013-03-13 12:15:00,
2013-03-13 05:20:00,46.6,45.9,30.13,North,11,0.0,1.0,97,0.00,,,0.00,meteohub,2013-03-13 12:20:00,
2013-03-13 05:25:00,46.4,45.7,30.13,NNE,12,0.0,1.0,97,0.00,,,0.00,meteohub,2013-03-13 12:25:00,
2013-03-13 05:30:00,46.6,45.9,30.13,NNE,12,0.0,1.0,97,0.00,,,0.00,meteohub,2013-03-13 12:30:00,
2013-03-13 05:36:00,46.6,45.9,30.14,SSE,153,0.0,1.0,97,0.00,,,0.00,meteohub,2013-03-13 12:36:00,
2013-03-13 05:42:00,46.4,45.7,30.13,SSE,153,0.0,1.0,97,0.00,,,0.00,meteohub,2013-03-13 12:42:00,
2013-03-13 05:47:00,46.6,45.9,30.13,SSE,155,1.0,1.0,97,0.00,,,0.00,meteohub,2013-03-13 12:47:00,
2013-03-13 05:52:00,46.8,46.0,30.13,South,180,1.0,1.0,97,0.00,,,0.00,meteohub,2013-03-13 12:52:00,
2013-03-13 05:58:00,46.8,46.0,30.13,South,181,0.0,2.0,97,0.00,,,0.00,meteohub,2013-03-13 12:58:00,
2013-03-13 06:03:00,46.9,46.2,30.14,South,181,0.0,2.0,97,0.00,,,0.00,meteohub,2013-03-13 13:03:00,
2013-03-13 06:08:00,47.1,46.4,30.13,SSE,149,0.0,2.0,97,0.00,,,0.00,meteohub,2013-03-13 13:08:00,
2013-03-13 06:14:00,47.5,46.8,30.13,North,354,2.0,2.0,97,0.00,,,0.00,meteohub,2013-03-13 13:14:00,
2013-03-13 06:19:00,47.8,47.3,30.14,ESE,108,0.0,2.0,98,0.00,,,0.00,meteohub,2013-03-13 13:19:00,
2013-03-13 06:24:00,48.0,47.5,30.14,East,91,0.0,2.0,98,0.00,,,0.00,meteohub,2013-03-13 13:24:00,
2013-03-13 06:29:00,48.4,47.8,30.14,ENE,72,4.0,4.0,98,0.00,,,0.00,meteohub,2013-03-13 13:29:00,
2013-03-13 06:34:00,48.4,47.8,30.14,ESE,122,1.0,2.0,98,0.00,,,0.00,meteohub,2013-03-13 13:34:00,
2013-03-13 06:40:00,48.6,48.0,30.13,East,96,0.0,4.0,98,0.00,,,0.00,meteohub,2013-03-13 13:40:00,
2013-03-13 06:45:00,48.7,48.2,30.14,SSE,163,1.0,2.0,98,0.00,,,0.00,meteohub,2013-03-13 13:45:00,
2013-03-13 06:50:00,48.7,47.8,30.14,SE,143,0.0,2.0,97,0.00,,,0.00,meteohub,2013-03-13 13:50:00,
2013-03-13 06:55:00,48.7,47.8,30.14,ENE,77,0.0,1.0,97,0.00,,,0.00,meteohub,2013-03-13 13:55:00,
2013-03-13 07:01:00,48.9,48.0,30.14,SE,124,0.0,2.0,97,0.00,,,0.00,meteohub,2013-03-13 14:01:00,
2013-03-13 07:06:00,48.9,48.0,30.14,ENE,75,0.0,2.0,97,0.00,,,0.00,meteohub,2013-03-13 14:06:00,
2013-03-13 07:11:00,48.9,48.0,30.14,East,99,0.0,2.0,97,0.00,,,0.00,meteohub,2013-03-13 14:11:00,
2013-03-13 07:17:00,48.9,48.0,30.14,East,99,0.0,2.0,97,0.00,,,0.00,meteohub,2013-03-13 14:17:00,
2013-03-13 07:22:00,48.9,48.0,30.14,NW,312,0.0,2.0,97,0.00,,,0.00,meteohub,2013-03-13 14:22:00,
2013-03-13 07:27:00,49.1,48.2,30.15,NNW,345,0.0,1.0,97,0.00,,,0.00,meteohub,2013-03-13 14:27:00,
2013-03-13 07:32:00,48.9,48.0,30.15,NNW,345,0.0,1.0,97,0.00,,,0.00,meteohub,2013-03-13 14:32:00,
2013-03-13 07:37:00,48.9,48.0,30.15,NNW,345,0.0,1.0,97,0.00,,,0.00,meteohub,2013-03-13 14:37:00,
2013-03-13 07:42:00,49.1,48.2,30.15,NNW,344,0.0,1.0,97,0.00,,,0.00,meteohub,2013-03-13 14:42:00,
2013-03-13 07:48:00,49.1,48.2,30.15,SE,126,0.0,1.0,97,0.00,,,0.00,meteohub,2013-03-13 14:48:00,
2013-03-13 07:53:00,49.1,48.2,30.14,SSE,148,0.0,1.0,97,0.00,,,0.00,meteohub,2013-03-13 14:53:00,
2013-03-13 07:58:00,49.3,48.4,30.14,South,191,0.0,1.0,97,0.00,,,0.00,meteohub,2013-03-13 14:58:00,
2013-03-13 08:03:00,49.3,48.4,30.14,SSE,147,0.0,1.0,97,0.00,,,0.00,meteohub,2013-03-13 15:03:00,
2013-03-13 08:08:00,49.3,48.4,30.14,ESE,116,1.0,2.0,97,0.00,,,0.00,meteohub,2013-03-13 15:08:00,
2013-03-13 08:14:00,49.3,48.4,30.14,SSE,153,1.0,2.0,97,0.00,,,0.00,meteohub,2013-03-13 15:14:00,
2013-03-13 08:19:00,48.9,48.0,30.14,SE,136,1.0,3.0,97,0.00,,,0.00,meteohub,2013-03-13 15:19:00,
2013-03-13 08:24:00,48.9,48.0,30.14,ESE,113,0.0,3.0,97,0.00,,,0.00,meteohub,2013-03-13 15:24:00,
2013-03-13 08:29:00,48.9,48.0,30.14,ESE,122,0.0,3.0,97,0.00,,,0.00,meteohub,2013-03-13 15:29:00,
2013-03-13 08:35:00,49.3,48.7,30.14,ESE,110,0.0,2.0,98,0.00,,,0.00,meteohub,2013-03-13 15:35:00,
2013-03-13 08:40:00,49.6,49.1,30.14,SE,131,0.0,2.0,98,0.00,,,0.00,meteohub,2013-03-13 15:40:00,
2013-03-13 08:45:00,50.2,49.6,30.14,ESE,118,2.0,2.0,98,0.00,,,0.00,meteohub,2013-03-13 15:45:00,
2013-03-13 08:50:00,50.4,49.8,30.13,SE,134,0.0,3.0,98,0.00,,,0.00,meteohub,2013-03-13 15:50:00,
2013-03-13 08:56:00,50.7,50.2,30.13,SE,141,0.0,3.0,98,0.00,,,0.00,meteohub,2013-03-13 15:56:00,
2013-03-13 09:01:00,51.1,50.5,30.14,ESE,118,0.0,3.0,98,0.00,,,0.00,meteohub,2013-03-13 16:01:00,
2013-03-13 09:06:00,51.3,50.7,30.14,SW,221,1.0,3.0,98,0.00,,,0.00,meteohub,2013-03-13 16:06:00,
2013-03-13 09:11:00,50.9,50.0,30.15,East,94,2.0,5.0,97,0.00,,,0.00,meteohub,2013-03-13 16:11:00,
2013-03-13 09:17:00,50.5,49.5,30.15,ESE,116,1.0,6.0,96,0.00,,,0.00,meteohub,2013-03-13 16:17:00,
2013-03-13 09:22:00,50.4,49.5,30.15,ESE,103,2.0,6.0,97,0.00,,,0.00,meteohub,2013-03-13 16:22:00,
2013-03-13 09:27:00,50.4,49.5,30.15,East,99,2.0,6.0,97,0.00,,,0.00,meteohub,2013-03-13 16:27:00,
2013-03-13 09:32:00,50.7,49.8,30.15,ESE,121,0.0,5.0,97,0.00,,,0.00,meteohub,2013-03-13 16:32:00,
2013-03-13 09:37:00,50.9,50.0,30.16,East,92,2.0,5.0,97,0.00,,,0.00,meteohub,2013-03-13 16:37:00,
2013-03-13 09:43:00,51.3,50.4,30.16,ESE,113,1.0,4.0,97,0.00,,,0.00,meteohub,2013-03-13 16:43:00,
2013-03-13 09:48:00,51.3,50.2,30.16,SSE,162,2.0,4.0,96,0.00,,,0.00,meteohub,2013-03-13 16:48:00,
2013-03-13 09:53:00,51.6,50.2,30.16,East,86,1.0,4.0,95,0.00,,,0.00,meteohub,2013-03-13 16:53:00,
2013-03-13 09:58:00,52.0,50.5,30.16,SE,135,1.0,4.0,95,0.00,,,0.00,meteohub,2013-03-13 16:58:00,
2013-03-13 10:03:00,52.3,50.7,30.16,ESE,115,2.0,4.0,94,0.00,,,0.00,meteohub,2013-03-13 17:03:00,
2013-03-13 10:09:00,52.9,50.4,30.16,SE,145,3.0,4.0,91,0.00,,,0.00,meteohub,2013-03-13 17:09:00,
2013-03-13 10:14:00,53.1,49.8,30.15,ESE,121,3.0,4.0,89,0.00,,,0.00,meteohub,2013-03-13 17:14:00,
2013-03-13 10:19:00,53.4,50.2,30.15,East,82,5.0,5.0,89,0.00,,,0.00,meteohub,2013-03-13 17:19:00,
2013-03-13 10:24:00,54.1,50.7,30.15,ESE,120,1.0,5.0,88,0.00,,,0.00,meteohub,2013-03-13 17:24:00,
2013-03-13 10:30:00,54.9,50.7,30.15,East,95,1.0,5.0,86,0.00,,,0.00,meteohub,2013-03-13 17:30:00,
2013-03-13 10:35:00,55.2,50.7,30.15,East,91,3.0,5.0,85,0.00,,,0.00,meteohub,2013-03-13 17:35:00,
2013-03-13 10:40:00,55.2,50.7,30.16,ESE,113,2.0,5.0,85,0.00,,,0.00,meteohub,2013-03-13 17:40:00,
2013-03-13 10:46:00,55.2,50.5,30.16,ESE,112,4.0,7.0,84,0.00,,,0.00,meteohub,2013-03-13 17:46:00,
2013-03-13 10:51:00,55.6,50.9,30.16,SSE,167,2.0,7.0,84,0.00,,,0.00,meteohub,2013-03-13 17:51:00,
2013-03-13 10:56:00,56.5,51.4,30.16,East,95,1.0,7.0,83,0.00,,,0.00,meteohub,2013-03-13 17:56:00,
2013-03-13 11:01:00,56.8,51.1,30.16,East,79,4.0,6.0,81,0.00,,,0.00,meteohub,2013-03-13 18:01:00,
2013-03-13 11:07:00,56.8,51.1,30.16,ESE,118,3.0,5.0,81,0.00,,,0.00,meteohub,2013-03-13 18:07:00,
2013-03-13 11:12:00,57.6,51.4,30.15,SE,126,1.0,5.0,80,0.00,,,0.00,meteohub,2013-03-13 18:12:00,
2013-03-13 11:17:00,58.1,52.0,30.15,ESE,110,0.0,4.0,80,0.00,,,0.00,meteohub,2013-03-13 18:17:00,
2013-03-13 11:22:00,59.2,52.3,30.16,SE,136,2.0,4.0,78,0.00,,,0.00,meteohub,2013-03-13 18:22:00,
2013-03-13 11:27:00,59.4,51.8,30.15,SE,145,1.0,4.0,76,0.00,,,0.00,meteohub,2013-03-13 18:27:00,
2013-03-13 11:33:00,59.5,52.0,30.15,East,99,1.0,4.0,76,0.00,,,0.00,meteohub,2013-03-13 18:33:00,
2013-03-13 11:38:00,60.3,52.3,30.15,ESE,106,1.0,4.0,75,0.00,,,0.00,meteohub,2013-03-13 18:38:00,
2013-03-13 11:43:00,61.0,52.7,30.15,East,79,2.0,4.0,74,0.00,,,0.00,meteohub,2013-03-13 18:43:00,
2013-03-13 11:48:00,61.2,52.0,30.15,East,100,1.0,4.0,72,0.00,,,0.00,meteohub,2013-03-13 18:48:00,
2013-03-13 11:54:00,61.2,52.5,30.15,East,98,1.0,4.0,73,0.00,,,0.00,meteohub,2013-03-13 18:54:00,
2013-03-13 11:59:00,61.3,52.2,30.14,ESE,106,2.0,4.0,72,0.00,,,0.00,meteohub,2013-03-13 18:59:00,
2013-03-13 12:04:00,61.9,52.7,30.14,East,93,2.0,4.0,72,0.00,,,0.00,meteohub,2013-03-13 19:04:00,
2013-03-13 12:09:00,62.4,52.5,30.14,ESE,115,1.0,4.0,70,0.00,,,0.00,meteohub,2013-03-13 19:09:00,
2013-03-13 12:14:00,63.7,52.9,30.14,East,94,2.0,4.0,68,0.00,,,0.00,meteohub,2013-03-13 19:14:00,
2013-03-13 12:20:00,64.0,53.2,30.14,NNE,15,1.0,4.0,68,0.00,,,0.00,meteohub,2013-03-13 19:20:00,
2013-03-13 12:25:00,64.0,53.2,30.14,ESE,105,1.0,3.0,68,0.00,,,0.00,meteohub,2013-03-13 19:25:00,
2013-03-13 12:30:00,64.9,53.2,30.14,East,88,1.0,3.0,66,0.00,,,0.00,meteohub,2013-03-13 19:30:00,
2013-03-13 12:35:00,66.0,53.4,30.14,NNE,13,0.0,3.0,64,0.00,,,0.00,meteohub,2013-03-13 19:35:00,
2013-03-13 12:40:00,66.2,53.2,30.13,NW,304,1.0,4.0,63,0.00,,,0.00,meteohub,2013-03-13 19:40:00,
2013-03-13 12:45:00,66.7,53.8,30.13,NNW,340,1.0,4.0,63,0.00,,,0.00,meteohub,2013-03-13 19:45:00,
2013-03-13 12:51:00,67.8,53.4,30.13,NNW,338,2.0,4.0,60,0.00,,,0.00,meteohub,2013-03-13 19:51:00,
2013-03-13 12:56:00,67.6,53.2,30.13,NE,51,1.0,4.0,60,0.00,,,0.00,meteohub,2013-03-13 19:56:00,
2013-03-13 13:01:00,66.7,53.2,30.13,NNW,342,4.0,6.0,62,0.00,,,0.00,meteohub,2013-03-13 20:01:00,
2013-03-13 13:07:00,64.6,52.9,30.13,NNW,338,1.0,6.0,66,0.00,,,0.00,meteohub,2013-03-13 20:07:00,
2013-03-13 13:12:00,64.9,53.8,30.13,NNE,27,2.0,6.0,67,0.00,,,0.00,meteohub,2013-03-13 20:12:00,
2013-03-13 13:17:00,65.8,52.9,30.12,North,6,5.0,5.0,63,0.00,,,0.00,meteohub,2013-03-13 20:17:00,
2013-03-13 13:22:00,66.0,52.7,30.12,NNE,19,4.0,8.0,62,0.00,,,0.00,meteohub,2013-03-13 20:22:00,
2013-03-13 13:28:00,63.5,51.1,30.13,NNW,348,6.0,10.0,64,0.00,,,0.00,meteohub,2013-03-13 20:28:00,
2013-03-13 13:33:00,62.2,51.6,30.12,North,356,4.0,13.0,68,0.00,,,0.00,meteohub,2013-03-13 20:33:00,
2013-03-13 13:38:00,62.6,52.3,30.12,West,259,3.0,13.0,69,0.00,,,0.00,meteohub,2013-03-13 20:38:00,
2013-03-13 13:43:00,63.7,52.5,30.12,North,6,6.0,13.0,67,0.00,,,0.00,meteohub,2013-03-13 20:43:00,
2013-03-13 13:48:00,64.0,52.9,30.12,North,9,4.0,9.0,67,0.00,,,0.00,meteohub,2013-03-13 20:48:00,
2013-03-13 13:54:00,64.8,52.7,30.12,NNW,328,4.0,7.0,65,0.00,,,0.00,meteohub,2013-03-13 20:54:00,
2013-03-13 13:59:00,64.6,52.2,30.12,North,6,5.0,8.0,64,0.00,,,0.00,meteohub,2013-03-13 20:59:00,
2013-03-13 14:04:00,63.7,52.5,30.12,NNW,329,2.0,10.0,67,0.00,,,0.00,meteohub,2013-03-13 21:04:00,
2013-03-13 14:09:00,63.3,51.4,30.12,North,355,4.0,10.0,65,0.00,,,0.00,meteohub,2013-03-13 21:09:00,
2013-03-13 14:14:00,63.0,51.4,30.12,North,352,7.0,13.0,66,0.00,,,0.00,meteohub,2013-03-13 21:14:00,
2013-03-13 14:19:00,62.2,52.0,30.11,NNE,12,4.0,13.0,69,0.00,,,0.00,meteohub,2013-03-13 21:19:00,
2013-03-13 14:24:00,62.8,52.5,30.11,NNE,33,5.0,13.0,69,0.00,,,0.00,meteohub,2013-03-13 21:24:00,
2013-03-13 14:30:00,64.0,52.9,30.11,NNW,347,5.0,12.0,67,0.00,,,0.00,meteohub,2013-03-13 21:30:00,
2013-03-13 14:35:00,64.6,53.4,30.11,NNE,20,1.0,12.0,67,0.00,,,0.00,meteohub,2013-03-13 21:35:00,
2013-03-13 14:40:00,65.7,53.6,30.10,NNE,31,3.0,7.0,65,0.00,,,0.00,meteohub,2013-03-13 21:40:00,
2013-03-13 14:45:00,65.8,52.9,30.10,NNE,19,3.0,7.0,63,0.00,,,0.00,meteohub,2013-03-13 21:45:00,
2013-03-13 14:51:00,66.6,53.6,30.10,NNW,335,2.0,7.0,63,0.00,,,0.00,meteohub,2013-03-13 21:51:00,
2013-03-13 14:56:00,67.1,53.2,30.10,North,356,4.0,7.0,61,0.00,,,0.00,meteohub,2013-03-13 21:56:00,
2013-03-13 15:01:00,68.2,53.8,30.09,NW,323,0.0,6.0,60,0.00,,,0.00,meteohub,2013-03-13 22:01:00,
2013-03-13 15:06:00,69.3,53.4,30.09,NNW,338,3.0,6.0,57,0.00,,,0.00,meteohub,2013-03-13 22:06:00,
2013-03-13 15:12:00,69.3,53.8,30.09,NNE,15,3.0,6.0,58,0.00,,,0.00,meteohub,2013-03-13 22:12:00,
2013-03-13 15:17:00,70.2,53.8,30.09,North,349,2.0,6.0,56,0.00,,,0.00,meteohub,2013-03-13 22:17:00,
2013-03-13 15:22:00,70.9,54.3,30.09,NNW,329,2.0,6.0,56,0.00,,,0.00,meteohub,2013-03-13 22:22:00,
2013-03-13 15:27:00,70.9,53.4,30.09,North,352,5.0,5.0,54,0.00,,,0.00,meteohub,2013-03-13 22:27:00,
2013-03-13 15:32:00,70.7,52.7,30.09,North,354,6.0,6.0,53,0.00,,,0.00,meteohub,2013-03-13 22:32:00,
2013-03-13 15:37:00,70.5,53.6,30.09,North,359,4.0,6.0,55,0.00,,,0.00,meteohub,2013-03-13 22:37:00,
2013-03-13 15:42:00,70.5,53.1,30.09,NNW,338,3.0,6.0,54,0.00,,,0.00,meteohub,2013-03-13 22:42:00,
2013-03-13 15:47:00,70.9,53.4,30.09,NNW,336,3.0,6.0,54,0.00,,,0.00,meteohub,2013-03-13 22:47:00,
2013-03-13 15:52:00,70.9,54.0,30.09,North,350,2.0,6.0,55,0.00,,,0.00,meteohub,2013-03-13 22:52:00,
2013-03-13 15:58:00,71.4,54.0,30.09,ENE,64,1.0,6.0,54,0.00,,,0.00,meteohub,2013-03-13 22:58:00,
2013-03-13 16:03:00,70.9,53.4,30.09,NNE,15,6.0,6.0,54,0.00,,,0.00,meteohub,2013-03-13 23:03:00,
2013-03-13 16:08:00,70.9,54.0,30.09,NNW,347,4.0,7.0,55,0.00,,,0.00,meteohub,2013-03-13 23:08:00,
2013-03-13 16:14:00,71.4,53.4,30.09,North,9,4.0,7.0,53,0.00,,,0.00,meteohub,2013-03-13 23:14:00,
2013-03-13 16:19:00,71.6,53.1,30.08,North,352,4.0,7.0,52,0.00,,,0.00,meteohub,2013-03-13 23:19:00,
2013-03-13 16:24:00,72.1,53.6,30.08,North,4,2.0,6.0,52,0.00,,,0.00,meteohub,2013-03-13 23:24:00,
2013-03-13 16:30:00,72.3,53.8,30.08,North,0,2.0,6.0,52,0.00,,,0.00,meteohub,2013-03-13 23:30:00,
2013-03-13 16:35:00,72.9,53.6,30.08,North,5,1.0,4.0,51,0.00,,,0.00,meteohub,2013-03-13 23:35:00,
2013-03-13 16:41:00,73.4,54.1,30.07,NNW,346,3.0,4.0,51,0.00,,,0.00,meteohub,2013-03-13 23:41:00,
2013-03-13 16:46:00,73.6,54.3,30.07,NNW,343,2.0,4.0,51,0.00,,,0.00,meteohub,2013-03-13 23:46:00,
2013-03-13 16:51:00,73.6,54.3,30.07,NNW,342,1.0,4.0,51,0.00,,,0.00,meteohub,2013-03-13 23:51:00,
2013-03-13 16:56:00,73.6,54.3,30.07,NNW,332,2.0,4.0,51,0.00,,,0.00,meteohub,2013-03-13 23:56:00,
2013-03-13 17:01:00,72.7,52.9,30.07,NNW,334,6.0,6.0,50,0.00,,,0.00,meteohub,2013-03-14 00:01:00,
2013-03-13 17:07:00,68.0,51.8,30.07,North,358,8.0,13.0,56,0.00,,,0.00,meteohub,2013-03-14 00:07:00,
2013-03-13 17:12:00,65.8,52.0,30.07,North,4,1.0,16.0,61,0.00,,,0.00,meteohub,2013-03-14 00:12:00,
2013-03-13 17:17:00,64.4,51.6,30.07,NE,40,2.0,16.0,63,0.00,,,0.00,meteohub,2013-03-14 00:17:00,
2013-03-13 17:22:00,63.3,51.8,30.07,NNW,346,5.0,16.0,66,0.00,,,0.00,meteohub,2013-03-14 00:22:00,
2013-03-13 17:27:00,62.8,52.0,30.07,ENE,72,2.0,10.0,68,0.00,,,0.00,meteohub,2013-03-14 00:27:00,
2013-03-13 17:32:00,62.8,52.0,30.06,NW,325,5.0,9.0,68,0.00,,,0.00,meteohub,2013-03-14 00:32:00,
2013-03-13 17:37:00,62.2,52.0,30.07,NNW,334,1.0,7.0,69,0.00,,,0.00,meteohub,2013-03-14 00:37:00,
2013-03-13 17:42:00,62.4,52.2,30.07,North,11,3.0,7.0,69,0.00,,,0.00,meteohub,2013-03-14 00:42:00,
2013-03-13 17:47:00,62.2,52.0,30.06,NW,316,2.0,7.0,69,0.00,,,0.00,meteohub,2013-03-14 00:47:00,
2013-03-13 17:52:00,61.7,51.8,30.06,NNW,334,3.0,6.0,70,0.00,,,0.00,meteohub,2013-03-14 00:52:00,
2013-03-13 17:58:00,61.0,51.4,30.07,NNE,32,2.0,6.0,71,0.00,,,0.00,meteohub,2013-03-14 00:58:00,
2013-03-13 18:03:00,60.1,51.4,30.07,NNE,25,2.0,7.0,73,0.00,,,0.00,meteohub,2013-03-14 01:03:00,
2013-03-13 18:08:00,58.8,50.5,30.07,NNW,331,4.0,7.0,74,0.00,,,0.00,meteohub,2013-03-14 01:08:00,
2013-03-13 18:13:00,57.4,50.5,30.07,NNE,33,2.0,8.0,78,0.00,,,0.00,meteohub,2013-03-14 01:13:00,
2013-03-13 18:19:00,56.5,50.0,30.07,NNE,32,3.0,8.0,79,0.00,,,0.00,meteohub,2013-03-14 01:19:00,
2013-03-13 18:24:00,55.8,50.0,30.07,NNW,340,3.0,8.0,81,0.00,,,0.00,meteohub,2013-03-14 01:24:00,
2013-03-13 18:29:00,55.2,49.8,30.07,NE,34,0.0,8.0,82,0.00,,,0.00,meteohub,2013-03-14 01:29:00,
2013-03-13 18:34:00,54.9,49.8,30.07,NNW,342,7.0,8.0,83,0.00,,,0.00,meteohub,2013-03-14 01:34:00,
2013-03-13 18:39:00,54.7,49.6,30.07,NE,34,1.0,8.0,83,0.00,,,0.00,meteohub,2013-03-14 01:39:00,
2013-03-13 18:44:00,54.7,50.0,30.07,North,356,2.0,7.0,84,0.00,,,0.00,meteohub,2013-03-14 01:44:00,
2013-03-13 18:50:00,54.7,50.0,30.07,North,356,1.0,7.0,84,0.00,,,0.00,meteohub,2013-03-14 01:50:00,
2013-03-13 18:55:00,54.5,49.8,30.07,North,1,1.0,7.0,84,0.00,,,0.00,meteohub,2013-03-14 01:55:00,
2013-03-13 19:00:00,54.3,49.6,30.07,NNE,29,1.0,6.0,84,0.00,,,0.00,meteohub,2013-03-14 02:00:00,
2013-03-13 19:05:00,54.1,49.8,30.06,WNW,287,1.0,6.0,85,0.00,,,0.00,meteohub,2013-03-14 02:05:00,
2013-03-13 19:10:00,54.0,49.6,30.06,WNW,295,1.0,6.0,85,0.00,,,0.00,meteohub,2013-03-14 02:10:00,
2013-03-13 19:15:00,54.0,49.6,30.06,NNW,330,2.0,6.0,85,0.00,,,0.00,meteohub,2013-03-14 02:15:00,
2013-03-13 19:21:00,53.8,49.5,30.06,North,0,3.0,4.0,85,0.00,,,0.00,meteohub,2013-03-14 02:21:00,
2013-03-13 19:26:00,53.4,49.3,30.06,North,1,1.0,4.0,86,0.00,,,0.00,meteohub,2013-03-14 02:26:00,
2013-03-13 19:31:00,53.2,49.1,30.06,East,82,1.0,4.0,86,0.00,,,0.00,meteohub,2013-03-14 02:31:00,
2013-03-13 19:36:00,53.2,49.1,30.06,NNE,15,1.0,4.0,86,0.00,,,0.00,meteohub,2013-03-14 02:36:00,
2013-03-13 19:42:00,53.1,48.9,30.06,North,349,3.0,4.0,86,0.00,,,0.00,meteohub,2013-03-14 02:42:00,
2013-03-13 19:47:00,52.9,49.1,30.06,NNE,29,3.0,5.0,87,0.00,,,0.00,meteohub,2013-03-14 02:47:00,
2013-03-13 19:52:00,52.9,49.1,30.06,NNW,345,2.0,5.0,87,0.00,,,0.00,meteohub,2013-03-14 02:52:00,
2013-03-13 19:57:00,52.9,49.1,30.06,NNE,13,2.0,5.0,87,0.00,,,0.00,meteohub,2013-03-14 02:57:00,
2013-03-13 20:02:00,52.9,49.1,30.06,NNE,23,2.0,4.0,87,0.00,,,0.00,meteohub,2013-03-14 03:02:00,
2013-03-13 20:07:00,52.7,48.9,30.06,North,4,1.0,4.0,87,0.00,,,0.00,meteohub,2013-03-14 03:07:00,
2013-03-13 20:12:00,52.5,48.7,30.06,NE,34,1.0,4.0,87,0.00,,,0.00,meteohub,2013-03-14 03:12:00,
2013-03-13 20:17:00,52.5,48.7,30.07,NNE,20,1.0,5.0,87,0.00,,,0.00,meteohub,2013-03-14 03:17:00,
2013-03-13 20:22:00,52.3,48.9,30.07,NNW,342,2.0,5.0,88,0.00,,,0.00,meteohub,2013-03-14 03:22:00,
2013-03-13 20:27:00,52.2,48.7,30.07,North,1,3.0,5.0,88,0.00,,,0.00,meteohub,2013-03-14 03:27:00,
2013-03-13 20:32:00,52.2,48.7,30.07,NNE,25,1.0,4.0,88,0.00,,,0.00,meteohub,2013-03-14 03:32:00,
2013-03-13 20:37:00,52.0,48.9,30.07,NNE,19,3.0,4.0,89,0.00,,,0.00,meteohub,2013-03-14 03:37:00,
2013-03-13 20:42:00,51.8,48.7,30.07,East,92,1.0,4.0,89,0.00,,,0.00,meteohub,2013-03-14 03:42:00,
2013-03-13 20:47:00,51.6,48.6,30.07,NNE,16,3.0,4.0,89,0.00,,,0.00,meteohub,2013-03-14 03:47:00,
2013-03-13 20:52:00,51.6,48.7,30.07,NNE,19,2.0,4.0,90,0.00,,,0.00,meteohub,2013-03-14 03:52:00,
2013-03-13 20:57:00,51.4,48.6,30.07,North,356,2.0,4.0,90,0.00,,,0.00,meteohub,2013-03-14 03:57:00,
2013-03-13 21:00:00,51.3,48.4,30.07,NE,41,3.0,4.0,90,0.00,,,0.00,meteohub,2013-03-14 04:00:00,
2013-03-13 21:01:00,51.3,48.4,30.07,NNE,23,4.0,4.0,90,0.00,,,0.00,meteohub,2013-03-14 04:01:00,
2013-03-13 21:02:00,51.3,48.4,30.08,North,354,2.0,4.0,90,0.00,,,0.00,meteohub,2013-03-14 04:02:00,
2013-03-13 21:07:00,51.1,48.6,30.08,East,82,1.0,4.0,91,0.00,,,0.00,meteohub,2013-03-14 04:07:00,
2013-03-13 21:13:00,50.9,48.4,30.08,NNE,15,3.0,4.0,91,0.00,,,0.00,meteohub,2013-03-14 04:13:00,
2013-03-13 21:18:00,50.7,48.2,30.08,WNW,283,1.0,5.0,91,0.00,,,0.00,meteohub,2013-03-14 04:18:00,
2013-03-13 21:23:00,50.5,48.0,30.09,North,350,0.0,5.0,91,0.00,,,0.00,meteohub,2013-03-14 04:23:00,
2013-03-13 21:28:00,50.4,48.2,30.09,North,354,3.0,5.0,92,0.00,,,0.00,meteohub,2013-03-14 04:28:00,
2013-03-13 21:33:00,50.2,48.0,30.09,WNW,295,0.0,5.0,92,0.00,,,0.00,meteohub,2013-03-14 04:33:00,
2013-03-13 21:38:00,49.8,47.7,30.09,NNE,26,3.0,5.0,92,0.00,,,0.00,meteohub,2013-03-14 04:38:00,
2013-03-13 21:43:00,49.6,47.7,30.09,NE,53,1.0,5.0,93,0.00,,,0.00,meteohub,2013-03-14 04:43:00,
2013-03-13 21:49:00,49.6,47.7,30.09,NNE,19,0.0,4.0,93,0.00,,,0.00,meteohub,2013-03-14 04:49:00,
2013-03-13 21:54:00,49.6,47.7,30.09,SW,215,1.0,4.0,93,0.00,,,0.00,meteohub,2013-03-14 04:54:00,
2013-03-13 21:59:00,49.6,47.7,30.09,WNW,302,1.0,4.0,93,0.00,,,0.00,meteohub,2013-03-14 04:59:00,
2013-03-13 22:04:00,49.6,48.0,30.09,NNW,329,0.0,3.0,94,0.00,,,0.00,meteohub,2013-03-14 05:04:00,
2013-03-13 22:09:00,49.5,47.8,30.09,ENE,68,0.0,3.0,94,0.00,,,0.00,meteohub,2013-03-14 05:09:00,
2013-03-13 22:14:00,49.6,48.0,30.09,NNW,340,1.0,5.0,94,0.00,,,0.00,meteohub,2013-03-14 05:14:00,
2013-03-13 22:20:00,49.6,48.0,30.10,North,5,1.0,5.0,94,0.00,,,0.00,meteohub,2013-03-14 05:20:00,
2013-03-13 22:25:00,49.6,48.0,30.10,NW,326,0.0,3.0,94,0.00,,,0.00,meteohub,2013-03-14 05:25:00,
2013-03-13 22:30:00,49.6,48.0,30.10,North,350,0.0,3.0,94,0.00,,,0.00,meteohub,2013-03-14 05:30:00,
2013-03-13 22:35:00,49.6,48.0,30.11,NW,325,2.0,3.0,94,0.00,,,0.00,meteohub,2013-03-14 05:35:00,
2013-03-13 22:41:00,49.5,47.8,30.10,NNW,338,2.0,4.0,94,0.00,,,0.00,meteohub,2013-03-14 05:41:00,
2013-03-13 22:46:00,49.5,47.8,30.10,North,359,2.0,5.0,94,0.00,,,0.00,meteohub,2013-03-14 05:46:00,
2013-03-13 22:51:00,49.3,47.7,30.10,North,0,5.0,5.0,94,0.00,,,0.00,meteohub,2013-03-14 05:51:00,
2013-03-13 22:56:00,49.3,47.7,30.10,North,350,2.0,5.0,94,0.00,,,0.00,meteohub,2013-03-14 05:56:00,
2013-03-13 23:01:00,49.3,47.7,30.11,NNE,15,2.0,5.0,94,0.00,,,0.00,meteohub,2013-03-14 06:01:00,
2013-03-13 23:06:00,49.1,47.5,30.10,NNW,344,3.0,5.0,94,0.00,,,0.00,meteohub,2013-03-14 06:06:00,
2013-03-13 23:12:00,49.1,47.7,30.11,NNW,342,3.0,5.0,95,0.00,,,0.00,meteohub,2013-03-14 06:12:00,
2013-03-13 23:17:00,49.3,47.8,30.10,NNE,33,1.0,5.0,95,0.00,,,0.00,meteohub,2013-03-14 06:17:00,
2013-03-13 23:22:00,49.3,47.8,30.10,NE,41,2.0,4.0,95,0.00,,,0.00,meteohub,2013-03-14 06:22:00,
2013-03-13 23:27:00,49.5,48.0,30.10,NNW,346,2.0,5.0,95,0.00,,,0.00,meteohub,2013-03-14 06:27:00,
2013-03-13 23:32:00,49.5,48.0,30.10,North,356,1.0,5.0,95,0.00,,,0.00,meteohub,2013-03-14 06:32:00,
2013-03-13 23:37:00,49.3,47.8,30.10,North,4,1.0,5.0,95,0.00,,,0.00,meteohub,2013-03-14 06:37:00,
2013-03-13 23:42:00,49.3,47.8,30.10,NNW,333,1.0,5.0,95,0.00,,,0.00,meteohub,2013-03-14 06:42:00,
2013-03-13 23:48:00,49.5,48.0,30.10,North,7,1.0,5.0,95,0.00,,,0.00,meteohub,2013-03-14 06:48:00,
2013-03-13 23:53:00,49.5,48.0,30.10,ENE,73,0.0,5.0,95,0.00,,,0.00,meteohub,2013-03-14 06:53:00,
2013-03-13 23:58:00,49.5,48.0,30.10,North,8,3.0,5.0,95,0.00,,,0.00,meteohub,2013-03-14 06:58:00,